GFSMA_prec_precacc24_132.txt.gz
Total_Precipitation_Accumulation
0.26 0.22 0.21 0.20 0.16 0.18 0.19 0.09 0.07 0.07 0.04 0.08 0.04 0.02 0.00 0.00 0.00 0.00 0.00 0.00 0.01 0.02 0.02 0.02 0.02 0.02 0.01 0.01 0.01 0.01 0.00 0.00 0.01 0.00 0.00 0.00 0.00 0.00 0.00 0.00 0.00 0.00 0.00
0.28 0.22 0.20 0.26 0.35 0.34 0.22 0.16 0.16 0.12 0.25 0.47 0.40 0.20 0.05 0.00 0.00 0.00 0.00 0.00 0.00 0.01 0.02 0.02 0.02 0.02 0.01 0.01 0.00 0.00 0.00 0.01 0.01 0.00 0.00 0.00 0.00 0.00 0.00 0.00 0.00 0.00 0.00
0.27 0.28 0.23 0.21 0.25 0.35 0.49 0.49 0.41 0.25 0.18 0.19 0.41 0.14 0.03 0.00 0.00 0.00 0.00 0.00 0.00 0.00 0.01 0.02 0.02 0.02 0.01 0.01 0.00 0.00 0.00 0.00 0.00 0.00 0.00 0.00 0.00 0.00 0.00 0.00 0.00 0.00 0.00
0.23 0.35 0.30 0.18 0.19 0.39 0.60 0.72 0.54 0.24 0.21 0.15 0.21 0.10 0.01 0.00 0.00 0.00 0.00 0.00 0.00 0.00 0.00 0.01 0.01 0.01 0.01 0.00 0.00 0.00 0.00 0.00 0.00 0.00 0.00 0.00 0.00 0.00 0.00 0.00 0.00 0.00 0.00
0.52 0.26 0.31 0.22 0.22 0.21 0.32 0.55 0.62 0.43 0.28 0.17 0.20 0.16 0.04 0.00 0.00 0.00 0.00 0.00 0.00 0.00 0.00 0.00 0.00 0.00 0.00 0.00 0.00 0.00 0.00 0.00 0.00 0.00 0.00 0.00 0.00 0.00 0.00 0.00 0.00 0.00 0.00
0.86 0.52 0.39 0.35 0.24 0.36 0.31 0.27 0.31 0.29 0.36 0.32 0.29 0.29 0.10 0.01 0.00 0.00 0.00 0.00 0.00 0.00 0.00 0.00 0.00 0.00 0.00 0.00 0.00 0.00 0.00 0.00 0.00 0.00 0.00 0.00 0.00 0.00 0.00 0.00 0.00 0.00 0.00
0.71 0.99 0.70 0.42 0.28 0.40 0.41 0.38 0.25 0.15 0.15 0.25 0.41 0.35 0.23 0.07 0.01 0.00 0.00 0.00 0.00 0.00 0.00 0.00 0.00 0.00 0.00 0.00 0.00 0.00 0.00 0.00 0.01 0.01 0.00 0.00 0.00 0.00 0.00 0.00 0.00 0.00 0.00
0.43 0.74 0.82 0.65 0.30 0.29 0.36 0.40 0.42 0.24 0.11 0.20 0.24 0.16 0.16 0.20 0.08 0.00 0.00 0.00 0.00 0.00 0.00 0.00 0.00 0.00 0.00 0.00 0.00 0.00 0.00 0.00 0.00 0.01 0.01 0.01 0.01 0.00 0.00 0.00 0.00 0.00 0.00
0.41 0.46 0.69 0.76 0.44 0.31 0.38 0.32 0.34 0.23 0.12 0.12 0.14 0.06 0.04 0.09 0.04 0.02 0.00 0.00 0.00 0.00 0.00 0.00 0.00 0.00 0.00 0.00 0.00 0.00 0.00 0.00 0.01 0.01 0.02 0.04 0.03 0.04 0.06 0.06 0.05 0.04 0.03
0.38 0.39 0.46 0.74 0.67 0.41 0.36 0.32 0.28 0.18 0.11 0.09 0.11 0.04 0.00 0.00 0.01 0.02 0.01 0.00 0.00 0.00 0.00 0.00 0.00 0.00 0.00 0.00 0.00 0.00 0.00 0.00 0.00 0.01 0.02 0.01 0.00 0.01 0.02 0.03 0.05 0.05 0.05
0.16 0.34 0.40 0.61 0.66 0.50 0.39 0.30 0.32 0.32 0.16 0.07 0.03 0.03 0.00 0.00 0.00 0.00 0.01 0.01 0.01 0.00 0.00 0.00 0.00 0.00 0.00 0.00 0.01 0.01 0.00 0.00 0.00 0.00 0.00 0.00 0.00 0.00 0.01 0.04 0.07 0.11 0.11
0.20 0.17 0.36 0.52 0.62 0.59 0.40 0.36 0.34 0.27 0.23 0.17 0.11 0.06 0.01 0.01 0.00 0.00 0.00 0.00 0.00 0.00 0.00 0.00 0.00 0.00 0.00 0.03 0.03 0.01 0.00 0.00 0.00 0.00 0.00 0.00 0.00 0.00 0.01 0.03 0.06 0.10 0.12
0.61 0.27 0.19 0.32 0.55 0.64 0.50 0.37 0.45 0.48 0.33 0.31 0.21 0.12 0.07 0.04 0.01 0.00 0.01 0.01 0.02 0.02 0.01 0.02 0.01 0.02 0.05 0.06 0.01 0.00 0.00 0.00 0.00 0.00 0.00 0.00 0.00 0.00 0.01 0.02 0.03 0.05 0.07
0.53 0.49 0.29 0.19 0.34 0.68 0.66 0.58 0.50 0.60 0.56 0.50 0.54 0.39 0.25 0.16 0.09 0.03 0.01 0.02 0.04 0.05 0.04 0.06 0.04 0.03 0.02 0.01 0.00 0.00 0.00 0.01 0.01 0.01 0.01 0.01 0.00 0.02 0.04 0.06 0.08 0.08 0.07
0.42 0.56 0.56 0.44 0.32 0.47 0.76 0.79 0.73 0.81 0.80 0.81 0.76 0.70 0.47 0.36 0.28 0.19 0.10 0.05 0.05 0.06 0.05 0.02 0.01 0.01 0.03 0.02 0.03 0.02 0.02 0.04 0.03 0.04 0.05 0.06 0.05 0.07 0.08 0.06 0.05 0.04 0.04
0.32 0.53 0.68 0.93 0.88 0.58 0.59 0.93 1.00 0.94 0.97 0.98 1.09 1.08 0.89 0.69 0.54 0.36 0.26 0.19 0.16 0.15 0.13 0.03 0.08 0.08 0.07 0.05 0.08 0.04 0.03 0.06 0.10 0.14 0.12 0.09 0.09 0.10 0.08 0.06 0.04 0.03 0.02
0.23 0.44 0.71 1.04 1.47 1.11 0.82 0.80 0.92 0.95 0.86 0.86 1.04 1.09 0.98 0.94 0.96 0.58 0.36 0.29 0.24 0.20 0.18 0.10 0.19 0.19 0.19 0.17 0.15 0.12 0.14 0.15 0.20 0.22 0.11 0.09 0.08 0.06 0.04 0.02 0.02 0.01 0.00
0.16 0.29 0.51 0.96 1.37 1.69 1.40 1.04 0.89 0.85 0.89 0.73 0.70 0.92 0.88 0.87 0.96 0.72 0.54 0.32 0.24 0.18 0.21 0.22 0.37 0.33 0.31 0.27 0.25 0.21 0.17 0.14 0.11 0.21 0.14 0.08 0.05 0.02 0.01 0.01 0.00 0.00 0.00
0.19 0.19 0.20 0.44 0.77 1.01 1.46 1.36 1.04 0.84 0.90 0.87 0.71 0.65 0.75 0.78 0.75 0.77 0.66 0.44 0.28 0.23 0.24 0.41 0.56 0.49 0.44 0.35 0.32 0.29 0.24 0.18 0.10 0.18 0.14 0.09 0.03 0.02 0.00 0.00 0.00 0.00 0.00
0.19 0.18 0.13 0.15 0.35 0.61 0.91 1.15 1.23 1.27 1.07 0.96 0.90 0.81 0.69 0.73 0.61 0.60 0.58 0.58 0.39 0.29 0.24 0.31 0.40 0.44 0.40 0.34 0.28 0.24 0.18 0.15 0.13 0.10 0.11 0.09 0.04 0.02 0.01 0.01 0.00 0.00 0.00
0.20 0.18 0.18 0.16 0.15 0.31 0.74 0.81 0.97 0.96 1.15 1.06 0.93 0.89 0.85 0.78 0.77 0.71 0.66 0.67 0.62 0.42 0.37 0.36 0.39 0.42 0.40 0.33 0.25 0.17 0.15 0.11 0.09 0.09 0.08 0.06 0.02 0.01 0.01 0.02 0.01 0.01 0.00
0.17 0.23 0.12 0.09 0.10 0.13 0.45 0.65 0.84 0.82 0.91 1.12 0.92 0.71 0.71 0.80 0.83 0.98 0.87 0.75 0.68 0.58 0.44 0.36 0.38 0.40 0.40 0.31 0.23 0.16 0.13 0.14 0.13 0.08 0.07 0.04 0.02 0.02 0.01 0.01 0.02 0.01 0.00
0.11 0.16 0.30 0.21 0.05 0.08 0.21 0.33 0.65 0.62 0.67 0.95 1.05 1.02 0.96 1.00 0.94 0.91 1.01 0.86 0.74 0.70 0.60 0.44 0.36 0.29 0.25 0.23 0.21 0.19 0.15 0.14 0.11 0.07 0.06 0.05 0.04 0.03 0.04 0.04 0.04 0.02 0.01
0.11 0.10 0.13 0.31 0.20 0.08 0.14 0.15 0.26 0.42 0.39 0.58 0.78 0.91 1.06 1.23 1.09 0.99 1.13 1.20 1.03 0.69 0.53 0.38 0.27 0.24 0.20 0.20 0.22 0.19 0.18 0.16 0.12 0.10 0.07 0.05 0.07 0.05 0.03 0.01 0.01 0.00 0.00
0.22 0.13 0.06 0.06 0.04 0.04 0.19 0.17 0.12 0.14 0.23 0.35 0.43 0.61 0.82 0.95 1.35 1.07 0.92 1.08 1.03 0.78 0.62 0.50 0.41 0.35 0.29 0.26 0.21 0.19 0.20 0.15 0.17 0.12 0.07 0.05 0.04 0.02 0.00 0.00 0.00 0.00 0.00
0.17 0.29 0.31 0.14 0.11 0.04 0.15 0.19 0.15 0.04 0.11 0.14 0.19 0.39 0.70 0.80 1.01 0.92 0.75 0.65 0.74 0.77 0.50 0.44 0.40 0.33 0.27 0.26 0.22 0.15 0.15 0.13 0.11 0.10 0.04 0.01 0.01 0.00 0.00 0.00 0.00 0.00 0.00

GFSMA_prec_precacc24_135.txt.gz
Total_Precipitation_Accumulation
0.13 0.13 0.18 0.19 0.16 0.18 0.19 0.09 0.07 0.07 0.04 0.08 0.09 0.03 0.01 0.01 0.02 0.06 0.03 0.01 0.02 0.03 0.03 0.03 0.03 0.03 0.02 0.01 0.02 0.02 0.01 0.01 0.01 0.01 0.00 0.00 0.00 0.00 0.00 0.00 0.00 0.00 0.00
0.18 0.16 0.18 0.26 0.35 0.34 0.22 0.16 0.16 0.13 0.25 0.47 0.45 0.26 0.09 0.01 0.02 0.02 0.00 0.00 0.00 0.01 0.03 0.03 0.03 0.02 0.02 0.02 0.01 0.01 0.01 0.01 0.02 0.01 0.00 0.00 0.00 0.00 0.00 0.00 0.00 0.00 0.00
0.20 0.25 0.22 0.21 0.25 0.35 0.49 0.49 0.42 0.26 0.18 0.20 0.43 0.17 0.04 0.01 0.03 0.03 0.01 0.00 0.00 0.00 0.01 0.02 0.03 0.02 0.02 0.02 0.01 0.01 0.01 0.01 0.01 0.01 0.00 0.00 0.00 0.00 0.00 0.00 0.00 0.00 0.00
0.17 0.33 0.29 0.18 0.19 0.39 0.61 0.72 0.54 0.24 0.21 0.15 0.21 0.11 0.01 0.01 0.01 0.02 0.01 0.00 0.00 0.00 0.00 0.01 0.02 0.02 0.02 0.01 0.01 0.01 0.01 0.01 0.01 0.00 0.00 0.00 0.00 0.00 0.00 0.00 0.00 0.00 0.00
0.47 0.24 0.30 0.22 0.22 0.21 0.34 0.57 0.63 0.45 0.29 0.17 0.20 0.16 0.04 0.01 0.03 0.02 0.00 0.00 0.00 0.00 0.00 0.00 0.00 0.01 0.01 0.01 0.01 0.01 0.01 0.00 0.00 0.00 0.00 0.00 0.00 0.00 0.00 0.00 0.00 0.00 0.00
0.82 0.49 0.38 0.34 0.25 0.36 0.32 0.31 0.39 0.34 0.37 0.32 0.29 0.29 0.13 0.04 0.05 0.03 0.01 0.00 0.00 0.00 0.00 0.00 0.00 0.00 0.00 0.01 0.01 0.01 0.01 0.00 0.00 0.00 0.00 0.00 0.00 0.00 0.00 0.00 0.00 0.00 0.00
0.67 0.98 0.73 0.47 0.34 0.41 0.44 0.48 0.33 0.19 0.16 0.26 0.42 0.36 0.24 0.08 0.04 0.05 0.01 0.00 0.00 0.00 0.00 0.00 0.00 0.00 0.00 0.00 0.00 0.01 0.01 0.01 0.01 0.01 0.00 0.00 0.00 0.00 0.00 0.00 0.00 0.00 0.00
0.36 0.73 0.83 0.73 0.46 0.49 0.47 0.48 0.43 0.24 0.11 0.20 0.24 0.16 0.18 0.22 0.09 0.01 0.00 0.00 0.00 0.00 0.00 0.00 0.00 0.00 0.00 0.00 0.00 0.00 0.01 0.00 0.00 0.01 0.01 0.01 0.01 0.00 0.00 0.00 0.00 0.00 0.01
0.37 0.45 0.70 0.81 0.59 0.51 0.54 0.40 0.36 0.25 0.14 0.13 0.14 0.06 0.04 0.12 0.07 0.05 0.03 0.01 0.00 0.00 0.00 0.00 0.00 0.00 0.00 0.00 0.00 0.00 0.00 0.00 0.01 0.02 0.02 0.04 0.03 0.04 0.06 0.07 0.05 0.05 0.04
0.41 0.41 0.49 0.76 0.70 0.48 0.44 0.37 0.31 0.24 0.14 0.11 0.12 0.04 0.00 0.00 0.01 0.03 0.04 0.04 0.02 0.00 0.00 0.00 0.00 0.00 0.00 0.00 0.00 0.00 0.00 0.00 0.00 0.01 0.02 0.01 0.01 0.01 0.03 0.03 0.05 0.05 0.06
0.18 0.36 0.41 0.63 0.67 0.52 0.44 0.39 0.40 0.38 0.18 0.09 0.04 0.04 0.01 0.00 0.00 0.00 0.01 0.01 0.02 0.00 0.00 0.00 0.00 0.00 0.00 0.00 0.01 0.01 0.00 0.00 0.00 0.00 0.01 0.01 0.00 0.01 0.01 0.03 0.06 0.10 0.10
0.10 0.19 0.38 0.54 0.60 0.59 0.42 0.44 0.45 0.35 0.29 0.19 0.11 0.07 0.02 0.02 0.00 0.00 0.00 0.00 0.01 0.01 0.01 0.00 0.00 0.00 0.00 0.03 0.03 0.01 0.00 0.00 0.00 0.00 0.00 0.00 0.00 0.00 0.01 0.03 0.06 0.07 0.08
0.14 0.14 0.19 0.32 0.53 0.60 0.49 0.42 0.47 0.49 0.33 0.28 0.18 0.13 0.08 0.05 0.01 0.00 0.00 0.00 0.05 0.07 0.03 0.02 0.01 0.02 0.05 0.06 0.01 0.00 0.00 0.00 0.00 0.00 0.00 0.00 0.00 0.01 0.02 0.03 0.03 0.04 0.05
0.16 0.22 0.16 0.15 0.31 0.60 0.59 0.52 0.43 0.48 0.45 0.40 0.40 0.33 0.22 0.16 0.10 0.04 0.01 0.02 0.05 0.12 0.10 0.06 0.04 0.03 0.02 0.01 0.00 0.00 0.00 0.01 0.01 0.01 0.01 0.01 0.00 0.02 0.04 0.06 0.08 0.08 0.06
0.19 0.32 0.32 0.27 0.20 0.33 0.57 0.60 0.51 0.53 0.57 0.61 0.57 0.55 0.38 0.33 0.28 0.20 0.14 0.10 0.10 0.13 0.10 0.03 0.01 0.01 0.03 0.02 0.03 0.02 0.02 0.04 0.03 0.03 0.03 0.04 0.05 0.07 0.08 0.07 0.06 0.04 0.03
0.16 0.28 0.44 0.71 0.67 0.35 0.35 0.72 0.78 0.74 0.71 0.77 0.96 0.99 0.84 0.69 0.59 0.45 0.38 0.32 0.23 0.19 0.17 0.07 0.08 0.08 0.07 0.05 0.08 0.04 0.03 0.05 0.03 0.06 0.06 0.06 0.09 0.10 0.09 0.07 0.05 0.03 0.02
0.15 0.21 0.42 0.77 1.21 0.91 0.62 0.56 0.72 0.83 0.75 0.72 0.96 1.06 0.98 0.97 1.08 0.77 0.60 0.53 0.39 0.31 0.28 0.15 0.21 0.19 0.19 0.17 0.15 0.11 0.10 0.07 0.12 0.18 0.10 0.09 0.11 0.12 0.09 0.04 0.02 0.01 0.00
0.16 0.23 0.38 0.69 0.97 1.34 1.18 0.92 0.77 0.77 0.83 0.68 0.67 0.92 0.90 0.90 1.13 1.09 0.90 0.61 0.41 0.32 0.33 0.23 0.36 0.33 0.30 0.25 0.23 0.19 0.15 0.12 0.10 0.19 0.12 0.10 0.10 0.10 0.11 0.08 0.02 0.00 0.00
0.19 0.20 0.24 0.46 0.68 0.83 1.26 1.27 1.01 0.85 0.91 0.88 0.71 0.65 0.76 0.79 0.80 0.95 0.89 0.60 0.40 0.40 0.38 0.43 0.52 0.47 0.41 0.31 0.27 0.25 0.22 0.19 0.13 0.20 0.15 0.16 0.13 0.12 0.09 0.05 0.01 0.00 0.00
0.20 0.19 0.16 0.21 0.40 0.63 0.89 1.14 1.23 1.27 1.08 0.96 0.90 0.81 0.69 0.73 0.62 0.68 0.87 0.86 0.59 0.50 0.37 0.36 0.43 0.45 0.35 0.27 0.26 0.24 0.24 0.22 0.21 0.18 0.19 0.17 0.12 0.08 0.04 0.03 0.01 0.01 0.00
0.20 0.18 0.20 0.20 0.18 0.35 0.78 0.82 0.97 0.96 1.16 1.07 0.93 0.89 0.85 0.78 0.78 0.78 0.78 0.91 1.02 0.66 0.46 0.41 0.41 0.43 0.39 0.32 0.27 0.20 0.21 0.20 0.17 0.16 0.18 0.17 0.12 0.08 0.05 0.04 0.02 0.02 0.01
0.17 0.23 0.13 0.12 0.14 0.16 0.47 0.68 0.85 0.82 0.91 1.12 0.92 0.70 0.70 0.79 0.83 0.97 0.92 0.88 0.77 0.65 0.50 0.42 0.38 0.34 0.36 0.36 0.34 0.31 0.26 0.26 0.23 0.14 0.13 0.10 0.04 0.03 0.02 0.02 0.04 0.03 0.01
0.11 0.16 0.31 0.23 0.09 0.18 0.33 0.38 0.67 0.62 0.66 0.94 1.03 1.00 0.95 0.97 0.92 0.89 0.98 0.92 0.88 0.79 0.63 0.44 0.35 0.29 0.28 0.28 0.34 0.39 0.32 0.27 0.20 0.16 0.15 0.12 0.06 0.05 0.05 0.06 0.06 0.03 0.01
0.11 0.10 0.13 0.33 0.61 0.38 0.25 0.36 0.37 0.42 0.38 0.56 0.76 0.88 1.02 1.19 1.05 0.96 1.16 1.27 1.05 0.80 0.68 0.55 0.42 0.34 0.29 0.32 0.40 0.35 0.35 0.35 0.33 0.25 0.15 0.10 0.10 0.08 0.05 0.03 0.02 0.01 0.00
0.21 0.13 0.06 0.08 0.18 0.44 0.52 0.28 0.18 0.14 0.21 0.32 0.40 0.59 0.79 0.91 1.27 1.01 0.93 1.14 1.12 0.97 0.87 0.76 0.62 0.59 0.57 0.55 0.45 0.38 0.39 0.33 0.35 0.27 0.18 0.14 0.10 0.06 0.03 0.01 0.00 0.00 0.00
0.16 0.27 0.30 0.15 0.18 0.12 0.31 0.35 0.19 0.05 0.11 0.12 0.16 0.33 0.61 0.72 0.95 0.91 0.79 0.76 0.88 0.95 0.63 0.61 0.64 0.63 0.58 0.57 0.55 0.43 0.31 0.29 0.27 0.24 0.14 0.11 0.09 0.04 0.02 0.01 0.00 0.00 0.00

GFSMA_prec_precacc24_138.txt.gz
Total_Precipitation_Accumulation
0.08 0.10 0.12 0.16 0.14 0.18 0.19 0.09 0.07 0.07 0.05 0.09 0.09 0.03 0.01 0.01 0.03 0.13 0.16 0.10 0.04 0.06 0.08 0.04 0.04 0.05 0.02 0.02 0.03 0.02 0.01 0.01 0.02 0.01 0.01 0.00 0.00 0.00 0.00 0.00 0.00 0.00 0.00
0.10 0.08 0.14 0.24 0.34 0.33 0.22 0.16 0.16 0.13 0.25 0.47 0.45 0.26 0.09 0.02 0.03 0.05 0.11 0.12 0.02 0.03 0.05 0.04 0.04 0.04 0.03 0.03 0.03 0.02 0.02 0.01 0.02 0.02 0.01 0.00 0.00 0.00 0.00 0.00 0.00 0.00 0.00
0.14 0.14 0.13 0.19 0.25 0.35 0.49 0.49 0.42 0.26 0.18 0.20 0.43 0.17 0.04 0.01 0.03 0.04 0.06 0.09 0.06 0.05 0.02 0.02 0.04 0.04 0.04 0.03 0.02 0.02 0.02 0.02 0.02 0.01 0.00 0.00 0.00 0.00 0.00 0.00 0.00 0.00 0.00
0.09 0.23 0.19 0.13 0.18 0.38 0.61 0.72 0.54 0.25 0.21 0.15 0.21 0.11 0.01 0.01 0.02 0.03 0.04 0.03 0.01 0.02 0.01 0.01 0.02 0.03 0.04 0.03 0.02 0.02 0.02 0.02 0.02 0.01 0.00 0.00 0.00 0.00 0.00 0.00 0.00 0.00 0.00
0.13 0.17 0.26 0.18 0.20 0.20 0.34 0.57 0.63 0.49 0.32 0.18 0.20 0.16 0.04 0.01 0.03 0.04 0.04 0.07 0.04 0.00 0.00 0.00 0.00 0.01 0.03 0.03 0.02 0.02 0.02 0.02 0.02 0.01 0.00 0.00 0.00 0.00 0.00 0.00 0.00 0.00 0.00
0.23 0.36 0.34 0.33 0.24 0.35 0.32 0.31 0.40 0.39 0.44 0.34 0.29 0.29 0.13 0.06 0.08 0.06 0.05 0.03 0.04 0.01 0.00 0.00 0.00 0.00 0.01 0.01 0.02 0.02 0.02 0.02 0.01 0.01 0.00 0.00 0.00 0.00 0.00 0.00 0.00 0.00 0.00
0.31 0.76 0.69 0.45 0.33 0.41 0.44 0.52 0.37 0.23 0.20 0.28 0.42 0.37 0.25 0.09 0.06 0.08 0.05 0.01 0.00 0.00 0.00 0.00 0.00 0.00 0.00 0.01 0.01 0.02 0.01 0.02 0.02 0.01 0.00 0.00 0.00 0.00 0.00 0.00 0.00 0.00 0.00
0.17 0.65 0.81 0.72 0.46 0.50 0.50 0.59 0.62 0.36 0.14 0.22 0.25 0.16 0.20 0.24 0.09 0.02 0.02 0.02 0.00 0.00 0.00 0.00 0.00 0.00 0.00 0.00 0.00 0.01 0.02 0.01 0.01 0.01 0.01 0.01 0.01 0.00 0.00 0.00 0.00 0.00 0.01
0.29 0.39 0.69 0.82 0.60 0.55 0.63 0.59 0.58 0.36 0.18 0.16 0.14 0.06 0.05 0.12 0.07 0.05 0.03 0.02 0.00 0.00 0.00 0.00 0.00 0.00 0.00 0.00 0.00 0.00 0.01 0.01 0.01 0.02 0.02 0.04 0.03 0.04 0.06 0.07 0.06 0.06 0.05
0.35 0.36 0.47 0.78 0.71 0.50 0.48 0.46 0.49 0.37 0.20 0.13 0.13 0.05 0.00 0.00 0.01 0.03 0.04 0.08 0.06 0.01 0.00 0.00 0.00 0.00 0.00 0.00 0.00 0.00 0.00 0.00 0.01 0.02 0.02 0.01 0.01 0.01 0.02 0.03 0.06 0.05 0.06
0.18 0.31 0.42 0.63 0.68 0.53 0.45 0.42 0.47 0.45 0.24 0.11 0.05 0.05 0.01 0.00 0.00 0.00 0.01 0.01 0.03 0.01 0.00 0.00 0.00 0.00 0.00 0.00 0.01 0.01 0.00 0.00 0.00 0.01 0.01 0.01 0.01 0.01 0.02 0.03 0.04 0.06 0.07
0.09 0.17 0.36 0.51 0.62 0.60 0.43 0.47 0.53 0.43 0.42 0.29 0.14 0.07 0.03 0.02 0.00 0.00 0.00 0.00 0.01 0.02 0.02 0.01 0.00 0.00 0.00 0.03 0.03 0.01 0.00 0.00 0.00 0.00 0.01 0.01 0.02 0.03 0.02 0.03 0.05 0.06 0.05
0.12 0.14 0.22 0.33 0.54 0.62 0.52 0.44 0.50 0.52 0.41 0.39 0.24 0.17 0.09 0.05 0.01 0.00 0.00 0.00 0.05 0.07 0.06 0.06 0.02 0.02 0.05 0.06 0.01 0.00 0.00 0.00 0.00 0.00 0.00 0.00 0.01 0.01 0.02 0.03 0.04 0.04 0.04
0.14 0.14 0.16 0.17 0.35 0.65 0.64 0.55 0.43 0.49 0.47 0.44 0.41 0.33 0.22 0.16 0.09 0.04 0.02 0.02 0.05 0.14 0.13 0.10 0.07 0.04 0.02 0.01 0.00 0.00 0.00 0.01 0.01 0.01 0.01 0.01 0.01 0.02 0.03 0.04 0.07 0.07 0.06
0.12 0.16 0.13 0.10 0.12 0.34 0.58 0.60 0.47 0.49 0.52 0.54 0.47 0.42 0.30 0.27 0.22 0.16 0.11 0.09 0.09 0.17 0.16 0.08 0.04 0.01 0.03 0.02 0.03 0.02 0.02 0.04 0.03 0.03 0.03 0.02 0.01 0.02 0.03 0.04 0.04 0.04 0.03
0.09 0.14 0.22 0.37 0.39 0.23 0.21 0.53 0.53 0.55 0.52 0.52 0.69 0.69 0.59 0.52 0.47 0.35 0.31 0.29 0.20 0.18 0.21 0.15 0.15 0.12 0.08 0.05 0.08 0.04 0.02 0.04 0.02 0.01 0.01 0.03 0.06 0.08 0.08 0.06 0.04 0.03 0.02
0.14 0.14 0.21 0.51 0.88 0.69 0.42 0.24 0.38 0.54 0.51 0.46 0.63 0.77 0.79 0.82 0.94 0.67 0.53 0.53 0.45 0.39 0.45 0.31 0.32 0.33 0.30 0.21 0.15 0.11 0.09 0.06 0.09 0.13 0.07 0.06 0.09 0.10 0.11 0.09 0.08 0.06 0.04
0.15 0.19 0.20 0.38 0.72 1.05 0.96 0.63 0.42 0.42 0.53 0.48 0.51 0.72 0.70 0.79 1.09 1.06 0.89 0.69 0.66 0.61 0.70 0.47 0.50 0.51 0.48 0.36 0.24 0.16 0.12 0.09 0.07 0.17 0.11 0.10 0.11 0.11 0.13 0.12 0.09 0.06 0.03
0.19 0.17 0.19 0.31 0.39 0.60 0.96 0.94 0.72 0.58 0.68 0.70 0.55 0.56 0.70 0.78 0.80 0.95 0.93 0.69 0.51 0.59 0.65 0.52 0.57 0.56 0.54 0.44 0.32 0.24 0.19 0.16 0.12 0.21 0.16 0.17 0.16 0.15 0.13 0.10 0.08 0.05 0.03
0.19 0.19 0.15 0.20 0.31 0.46 0.70 0.78 0.98 1.07 0.93 0.92 0.89 0.82 0.71 0.74 0.63 0.69 0.88 0.89 0.65 0.70 0.62 0.44 0.47 0.51 0.46 0.43 0.37 0.26 0.23 0.21 0.20 0.18 0.21 0.20 0.16 0.13 0.09 0.07 0.05 0.04 0.01
0.20 0.18 0.19 0.19 0.16 0.31 0.64 0.69 0.87 0.94 1.11 1.05 0.93 0.88 0.85 0.79 0.79 0.79 0.79 0.91 1.07 0.76 0.53 0.51 0.49 0.49 0.49 0.41 0.36 0.27 0.24 0.23 0.20 0.19 0.21 0.21 0.17 0.15 0.16 0.14 0.08 0.05 0.02
0.17 0.23 0.13 0.11 0.13 0.15 0.43 0.63 0.85 0.88 0.94 1.12 0.92 0.71 0.70 0.79 0.83 0.97 0.92 0.89 0.81 0.68 0.53 0.45 0.42 0.39 0.42 0.41 0.43 0.43 0.39 0.35 0.31 0.19 0.17 0.15 0.11 0.12 0.12 0.09 0.08 0.05 0.02
0.09 0.16 0.30 0.22 0.09 0.18 0.32 0.38 0.73 0.71 0.74 0.99 1.04 1.00 0.94 0.96 0.91 0.89 0.98 0.92 0.94 0.83 0.62 0.43 0.35 0.31 0.36 0.37 0.45 0.55 0.45 0.36 0.28 0.23 0.25 0.25 0.16 0.14 0.12 0.10 0.10 0.05 0.02
0.09 0.08 0.11 0.31 0.60 0.38 0.26 0.38 0.57 0.60 0.48 0.62 0.78 0.87 1.01 1.18 1.03 0.95 1.16 1.27 1.05 0.81 0.70 0.58 0.46 0.41 0.38 0.46 0.58 0.58 0.59 0.61 0.59 0.47 0.29 0.22 0.19 0.16 0.10 0.05 0.07 0.03 0.01
0.20 0.12 0.05 0.06 0.18 0.44 0.52 0.28 0.28 0.46 0.46 0.46 0.58 0.62 0.78 0.89 1.21 0.98 0.93 1.14 1.13 1.00 0.95 0.87 0.74 0.77 0.81 0.83 0.80 0.78 0.77 0.63 0.62 0.46 0.32 0.27 0.22 0.16 0.12 0.06 0.05 0.04 0.02
0.16 0.26 0.29 0.14 0.17 0.11 0.30 0.34 0.20 0.12 0.26 0.27 0.22 0.32 0.56 0.67 0.87 0.86 0.77 0.75 0.88 0.97 0.67 0.66 0.76 0.85 0.83 0.88 0.92 0.78 0.59 0.53 0.48 0.44 0.29 0.24 0.22 0.15 0.14 0.08 0.06 0.04 0.01

GFSMA_prec_precacc24_141.txt.gz
Total_Precipitation_Accumulation
0.05 0.08 0.10 0.08 0.10 0.18 0.19 0.09 0.07 0.07 0.05 0.09 0.09 0.03 0.01 0.01 0.03 0.13 0.19 0.26 0.17 0.16 0.15 0.09 0.05 0.06 0.03 0.03 0.03 0.03 0.02 0.01 0.02 0.02 0.01 0.00 0.00 0.00 0.00 0.00 0.00 0.00 0.00
0.05 0.05 0.07 0.19 0.31 0.31 0.22 0.16 0.16 0.13 0.25 0.47 0.45 0.26 0.09 0.02 0.03 0.05 0.12 0.23 0.17 0.12 0.09 0.06 0.04 0.06 0.04 0.03 0.03 0.03 0.02 0.02 0.03 0.02 0.01 0.00 0.00 0.00 0.00 0.00 0.00 0.00 0.00
0.08 0.06 0.06 0.16 0.22 0.33 0.49 0.49 0.42 0.26 0.18 0.20 0.43 0.17 0.04 0.01 0.03 0.04 0.07 0.13 0.21 0.16 0.08 0.04 0.05 0.07 0.05 0.03 0.03 0.02 0.03 0.03 0.03 0.02 0.01 0.00 0.00 0.00 0.00 0.00 0.00 0.00 0.00
0.05 0.12 0.08 0.07 0.17 0.37 0.61 0.72 0.54 0.25 0.21 0.15 0.21 0.11 0.01 0.01 0.02 0.03 0.04 0.04 0.05 0.07 0.07 0.02 0.02 0.05 0.05 0.03 0.03 0.02 0.02 0.03 0.04 0.02 0.00 0.00 0.00 0.00 0.00 0.00 0.00 0.00 0.00
0.05 0.06 0.05 0.08 0.16 0.18 0.34 0.57 0.63 0.51 0.33 0.18 0.20 0.16 0.04 0.01 0.03 0.04 0.04 0.08 0.07 0.06 0.04 0.00 0.00 0.01 0.03 0.04 0.02 0.02 0.02 0.03 0.03 0.02 0.00 0.00 0.00 0.00 0.00 0.00 0.00 0.00 0.00
0.08 0.10 0.09 0.13 0.16 0.31 0.32 0.31 0.40 0.43 0.49 0.35 0.30 0.30 0.13 0.06 0.08 0.06 0.05 0.05 0.07 0.08 0.07 0.01 0.00 0.00 0.01 0.02 0.02 0.02 0.03 0.03 0.03 0.02 0.01 0.00 0.00 0.00 0.00 0.00 0.00 0.00 0.00
0.16 0.23 0.38 0.34 0.25 0.35 0.44 0.52 0.39 0.24 0.25 0.32 0.44 0.38 0.26 0.09 0.06 0.08 0.06 0.03 0.03 0.02 0.02 0.01 0.00 0.00 0.00 0.02 0.02 0.03 0.02 0.04 0.03 0.02 0.01 0.00 0.00 0.00 0.00 0.00 0.00 0.00 0.00
0.12 0.19 0.43 0.58 0.41 0.47 0.49 0.60 0.64 0.42 0.19 0.32 0.29 0.17 0.20 0.24 0.09 0.02 0.02 0.02 0.01 0.00 0.00 0.00 0.00 0.00 0.00 0.00 0.01 0.02 0.04 0.03 0.02 0.02 0.02 0.01 0.00 0.00 0.00 0.00 0.00 0.00 0.01
0.25 0.26 0.41 0.63 0.56 0.57 0.64 0.60 0.61 0.45 0.26 0.23 0.19 0.08 0.05 0.12 0.07 0.05 0.03 0.02 0.00 0.00 0.00 0.00 0.00 0.00 0.00 0.00 0.00 0.00 0.02 0.03 0.03 0.03 0.02 0.04 0.03 0.04 0.05 0.06 0.05 0.06 0.06
0.45 0.49 0.46 0.63 0.71 0.55 0.50 0.49 0.59 0.50 0.34 0.19 0.19 0.06 0.00 0.00 0.01 0.03 0.04 0.08 0.06 0.01 0.00 0.00 0.00 0.00 0.00 0.00 0.00 0.00 0.00 0.01 0.01 0.03 0.03 0.01 0.01 0.01 0.01 0.02 0.04 0.04 0.04
0.20 0.26 0.42 0.59 0.67 0.59 0.48 0.45 0.50 0.50 0.30 0.15 0.06 0.08 0.02 0.00 0.00 0.00 0.01 0.01 0.03 0.01 0.00 0.00 0.00 0.00 0.00 0.00 0.01 0.01 0.00 0.00 0.00 0.01 0.01 0.01 0.01 0.01 0.02 0.03 0.04 0.05 0.05
0.10 0.11 0.18 0.39 0.56 0.61 0.44 0.48 0.54 0.45 0.46 0.33 0.19 0.09 0.04 0.03 0.01 0.00 0.00 0.00 0.01 0.02 0.02 0.01 0.00 0.00 0.00 0.03 0.03 0.01 0.00 0.00 0.00 0.00 0.01 0.01 0.02 0.03 0.04 0.05 0.07 0.06 0.04
0.14 0.16 0.19 0.26 0.50 0.62 0.52 0.45 0.52 0.54 0.43 0.41 0.31 0.27 0.16 0.09 0.04 0.00 0.00 0.00 0.05 0.07 0.06 0.06 0.03 0.02 0.05 0.06 0.01 0.00 0.00 0.00 0.00 0.00 0.00 0.01 0.02 0.03 0.04 0.06 0.06 0.05 0.04
0.09 0.13 0.16 0.16 0.33 0.62 0.64 0.56 0.45 0.51 0.48 0.46 0.44 0.41 0.30 0.23 0.15 0.04 0.02 0.02 0.05 0.14 0.13 0.10 0.07 0.06 0.05 0.01 0.00 0.00 0.00 0.00 0.00 0.01 0.01 0.02 0.02 0.02 0.02 0.02 0.03 0.03 0.04
0.10 0.11 0.09 0.09 0.12 0.33 0.58 0.61 0.47 0.51 0.54 0.55 0.49 0.45 0.33 0.33 0.27 0.18 0.11 0.08 0.09 0.17 0.16 0.08 0.04 0.02 0.02 0.03 0.04 0.01 0.01 0.01 0.02 0.03 0.03 0.02 0.01 0.01 0.01 0.02 0.02 0.03 0.02
0.08 0.11 0.16 0.14 0.10 0.14 0.21 0.55 0.54 0.57 0.54 0.52 0.66 0.65 0.53 0.44 0.43 0.32 0.27 0.24 0.16 0.16 0.19 0.15 0.14 0.10 0.09 0.07 0.10 0.06 0.02 0.03 0.01 0.01 0.01 0.01 0.03 0.04 0.04 0.04 0.03 0.02 0.01
0.14 0.14 0.16 0.27 0.41 0.34 0.21 0.15 0.31 0.49 0.49 0.45 0.58 0.63 0.62 0.67 0.75 0.54 0.42 0.43 0.38 0.33 0.41 0.31 0.28 0.31 0.33 0.28 0.23 0.15 0.09 0.04 0.06 0.07 0.05 0.05 0.07 0.10 0.10 0.08 0.07 0.06 0.04
0.15 0.19 0.18 0.20 0.37 0.72 0.74 0.36 0.20 0.25 0.33 0.34 0.43 0.62 0.56 0.68 0.94 0.91 0.75 0.60 0.59 0.55 0.65 0.53 0.49 0.53 0.57 0.48 0.38 0.26 0.13 0.07 0.04 0.15 0.10 0.10 0.11 0.11 0.13 0.13 0.10 0.07 0.05
0.18 0.17 0.18 0.18 0.16 0.38 0.72 0.65 0.42 0.27 0.28 0.33 0.36 0.44 0.60 0.71 0.75 0.89 0.87 0.64 0.46 0.55 0.66 0.54 0.52 0.52 0.57 0.54 0.49 0.42 0.28 0.16 0.11 0.20 0.17 0.19 0.17 0.16 0.14 0.12 0.09 0.07 0.06
0.19 0.18 0.14 0.17 0.16 0.18 0.41 0.48 0.58 0.56 0.38 0.47 0.61 0.64 0.62 0.72 0.62 0.66 0.87 0.86 0.63 0.68 0.64 0.46 0.48 0.51 0.47 0.48 0.51 0.44 0.40 0.32 0.21 0.18 0.22 0.23 0.20 0.17 0.14 0.10 0.07 0.06 0.04
0.20 0.17 0.18 0.18 0.14 0.18 0.33 0.40 0.45 0.63 0.88 0.90 0.85 0.83 0.77 0.72 0.78 0.73 0.73 0.87 1.05 0.77 0.57 0.51 0.50 0.50 0.52 0.47 0.46 0.44 0.43 0.36 0.30 0.26 0.23 0.23 0.20 0.18 0.19 0.16 0.13 0.10 0.06
0.17 0.23 0.13 0.11 0.12 0.11 0.29 0.43 0.52 0.64 0.83 1.02 0.88 0.69 0.68 0.74 0.77 0.92 0.89 0.87 0.81 0.69 0.54 0.46 0.42 0.38 0.42 0.43 0.52 0.60 0.58 0.56 0.53 0.35 0.29 0.26 0.18 0.17 0.15 0.12 0.14 0.11 0.08
0.08 0.14 0.28 0.21 0.08 0.13 0.23 0.25 0.50 0.56 0.69 0.92 1.04 1.00 0.93 0.95 0.91 0.88 0.98 0.93 0.95 0.84 0.61 0.42 0.32 0.30 0.37 0.42 0.55 0.78 0.67 0.53 0.42 0.34 0.43 0.50 0.31 0.22 0.16 0.16 0.17 0.12 0.10
0.08 0.07 0.09 0.29 0.59 0.35 0.22 0.33 0.51 0.55 0.47 0.65 0.85 1.09 1.30 1.39 1.06 0.95 1.16 1.27 1.05 0.81 0.70 0.58 0.45 0.41 0.38 0.52 0.74 0.78 0.87 0.95 0.89 0.74 0.58 0.49 0.33 0.26 0.21 0.15 0.20 0.14 0.09
0.17 0.10 0.04 0.05 0.16 0.43 0.48 0.24 0.26 0.46 0.46 0.46 0.61 0.75 0.94 1.17 1.36 0.99 0.93 1.15 1.13 1.00 0.98 0.90 0.75 0.77 0.82 0.85 0.93 1.03 1.09 0.97 0.94 0.76 0.52 0.39 0.36 0.30 0.27 0.19 0.19 0.18 0.10
0.14 0.23 0.27 0.12 0.14 0.10 0.27 0.30 0.16 0.11 0.24 0.25 0.22 0.33 0.61 0.70 0.93 0.89 0.78 0.76 0.88 0.97 0.67 0.67 0.77 0.85 0.83 0.90 1.02 0.88 0.82 0.82 0.77 0.71 0.49 0.38 0.38 0.34 0.36 0.26 0.22 0.19 0.13

GFSMA_prec_precacc24_147.txt.gz
Total_Precipitation_Accumulation
0.00 0.00 0.01 0.04 0.05 0.07 0.07 0.01 0.02 0.01 0.04 0.08 0.08 0.03 0.01 0.01 0.05 0.14 0.19 0.27 0.20 0.35 0.37 0.25 0.20 0.11 0.04 0.03 0.04 0.02 0.02 0.02 0.02 0.02 0.02 0.01 0.01 0.00 0.00 0.00 0.00 0.00 0.00
0.01 0.00 0.00 0.03 0.11 0.09 0.04 0.04 0.11 0.09 0.24 0.47 0.44 0.26 0.09 0.02 0.04 0.06 0.12 0.23 0.23 0.23 0.24 0.24 0.12 0.12 0.10 0.03 0.03 0.03 0.03 0.03 0.02 0.02 0.01 0.01 0.00 0.00 0.00 0.00 0.00 0.00 0.00
0.02 0.01 0.00 0.01 0.06 0.05 0.08 0.17 0.27 0.20 0.17 0.19 0.41 0.17 0.04 0.01 0.05 0.06 0.07 0.13 0.24 0.27 0.16 0.18 0.26 0.17 0.12 0.04 0.03 0.02 0.03 0.04 0.03 0.02 0.01 0.00 0.00 0.00 0.00 0.00 0.00 0.00 0.00
0.01 0.02 0.01 0.00 0.03 0.13 0.22 0.32 0.41 0.21 0.19 0.14 0.17 0.09 0.01 0.01 0.03 0.03 0.04 0.04 0.05 0.11 0.12 0.04 0.09 0.12 0.11 0.06 0.03 0.03 0.03 0.03 0.04 0.02 0.01 0.00 0.00 0.00 0.00 0.00 0.00 0.00 0.00
0.02 0.02 0.01 0.01 0.02 0.07 0.15 0.30 0.47 0.47 0.32 0.16 0.17 0.15 0.04 0.02 0.04 0.04 0.04 0.08 0.08 0.08 0.11 0.06 0.03 0.04 0.04 0.05 0.02 0.03 0.02 0.03 0.04 0.02 0.00 0.00 0.00 0.00 0.00 0.00 0.00 0.00 0.00
0.06 0.07 0.04 0.03 0.03 0.08 0.12 0.13 0.28 0.39 0.50 0.36 0.28 0.29 0.14 0.07 0.09 0.08 0.07 0.06 0.11 0.18 0.17 0.17 0.05 0.01 0.01 0.03 0.03 0.03 0.03 0.03 0.04 0.03 0.01 0.00 0.00 0.00 0.00 0.00 0.00 0.00 0.00
0.15 0.20 0.19 0.18 0.12 0.10 0.15 0.26 0.28 0.22 0.24 0.31 0.41 0.38 0.27 0.09 0.07 0.09 0.07 0.04 0.03 0.06 0.15 0.19 0.12 0.06 0.01 0.02 0.03 0.04 0.03 0.05 0.05 0.05 0.01 0.00 0.00 0.00 0.00 0.00 0.00 0.00 0.00
0.11 0.16 0.17 0.23 0.25 0.31 0.22 0.31 0.38 0.39 0.20 0.34 0.30 0.22 0.21 0.23 0.10 0.02 0.02 0.02 0.01 0.01 0.03 0.11 0.12 0.08 0.03 0.00 0.01 0.03 0.05 0.04 0.04 0.05 0.03 0.00 0.00 0.00 0.00 0.00 0.00 0.00 0.01
0.25 0.24 0.24 0.24 0.29 0.38 0.38 0.41 0.40 0.41 0.31 0.30 0.23 0.10 0.05 0.12 0.08 0.05 0.04 0.02 0.01 0.01 0.01 0.04 0.07 0.07 0.03 0.00 0.00 0.01 0.02 0.04 0.06 0.05 0.03 0.02 0.02 0.02 0.02 0.02 0.03 0.04 0.05
0.44 0.52 0.49 0.50 0.52 0.54 0.50 0.45 0.54 0.56 0.50 0.32 0.35 0.15 0.05 0.02 0.05 0.06 0.05 0.09 0.07 0.02 0.01 0.02 0.03 0.05 0.03 0.01 0.00 0.00 0.00 0.01 0.03 0.04 0.04 0.02 0.01 0.01 0.01 0.01 0.02 0.02 0.03
0.21 0.26 0.37 0.50 0.59 0.47 0.34 0.41 0.47 0.56 0.44 0.32 0.22 0.13 0.05 0.05 0.05 0.03 0.05 0.03 0.04 0.03 0.01 0.01 0.02 0.02 0.02 0.02 0.03 0.00 0.00 0.00 0.00 0.02 0.03 0.02 0.01 0.01 0.02 0.03 0.04 0.05 0.06
0.24 0.32 0.35 0.32 0.32 0.31 0.26 0.36 0.43 0.43 0.49 0.39 0.25 0.18 0.09 0.06 0.03 0.03 0.05 0.05 0.03 0.02 0.03 0.01 0.01 0.01 0.01 0.02 0.01 0.01 0.00 0.00 0.00 0.00 0.02 0.02 0.02 0.03 0.04 0.05 0.07 0.07 0.07
0.68 0.84 0.76 0.63 0.52 0.58 0.58 0.47 0.35 0.41 0.45 0.46 0.36 0.31 0.20 0.14 0.13 0.10 0.10 0.12 0.12 0.07 0.05 0.05 0.03 0.02 0.05 0.02 0.00 0.00 0.00 0.00 0.00 0.00 0.00 0.01 0.02 0.02 0.04 0.05 0.07 0.08 0.08
0.30 0.51 0.66 0.67 0.80 0.88 0.81 0.68 0.28 0.33 0.44 0.46 0.48 0.46 0.34 0.28 0.24 0.17 0.12 0.15 0.16 0.19 0.16 0.10 0.06 0.05 0.04 0.02 0.01 0.01 0.00 0.00 0.00 0.00 0.00 0.01 0.02 0.02 0.02 0.02 0.04 0.06 0.07
0.09 0.15 0.24 0.23 0.26 0.45 0.39 0.42 0.39 0.41 0.48 0.52 0.48 0.47 0.37 0.37 0.32 0.24 0.22 0.20 0.25 0.24 0.19 0.15 0.04 0.02 0.02 0.03 0.05 0.04 0.02 0.01 0.00 0.00 0.00 0.01 0.00 0.01 0.02 0.02 0.02 0.03 0.03
0.08 0.07 0.08 0.10 0.15 0.17 0.18 0.32 0.40 0.55 0.59 0.55 0.71 0.71 0.57 0.48 0.47 0.36 0.37 0.34 0.25 0.27 0.27 0.18 0.10 0.06 0.06 0.04 0.04 0.03 0.01 0.02 0.00 0.00 0.00 0.01 0.02 0.03 0.03 0.03 0.02 0.02 0.02
0.14 0.11 0.07 0.06 0.09 0.14 0.18 0.19 0.24 0.40 0.55 0.55 0.74 0.76 0.69 0.72 0.79 0.58 0.48 0.51 0.41 0.37 0.43 0.36 0.21 0.21 0.23 0.18 0.12 0.08 0.05 0.03 0.02 0.04 0.04 0.05 0.07 0.10 0.10 0.08 0.07 0.06 0.05
0.14 0.18 0.16 0.09 0.05 0.06 0.10 0.15 0.18 0.20 0.31 0.38 0.52 0.76 0.65 0.76 1.00 0.98 0.82 0.62 0.58 0.54 0.64 0.45 0.32 0.33 0.45 0.42 0.28 0.17 0.10 0.06 0.04 0.11 0.10 0.10 0.11 0.11 0.13 0.13 0.11 0.08 0.06
0.17 0.16 0.17 0.16 0.09 0.07 0.09 0.10 0.11 0.15 0.22 0.29 0.34 0.47 0.58 0.76 0.84 0.97 0.93 0.68 0.51 0.55 0.61 0.36 0.25 0.27 0.36 0.44 0.43 0.41 0.34 0.24 0.16 0.24 0.26 0.29 0.25 0.19 0.15 0.13 0.10 0.08 0.07
0.18 0.18 0.14 0.16 0.13 0.06 0.08 0.09 0.13 0.16 0.13 0.19 0.28 0.34 0.42 0.66 0.61 0.64 0.83 0.84 0.63 0.67 0.58 0.34 0.31 0.33 0.36 0.41 0.46 0.40 0.43 0.43 0.36 0.32 0.37 0.35 0.32 0.26 0.19 0.14 0.10 0.08 0.06
0.19 0.17 0.18 0.18 0.13 0.10 0.11 0.08 0.06 0.10 0.18 0.26 0.24 0.25 0.29 0.46 0.60 0.66 0.65 0.76 0.95 0.67 0.47 0.45 0.40 0.38 0.43 0.41 0.41 0.42 0.46 0.47 0.48 0.48 0.47 0.46 0.43 0.40 0.33 0.26 0.20 0.15 0.10
0.16 0.22 0.13 0.11 0.11 0.10 0.13 0.12 0.12 0.11 0.15 0.31 0.31 0.29 0.35 0.44 0.46 0.69 0.79 0.80 0.71 0.61 0.51 0.41 0.33 0.29 0.34 0.39 0.50 0.60 0.63 0.67 0.73 0.55 0.51 0.58 0.51 0.48 0.44 0.36 0.36 0.22 0.16
0.08 0.14 0.28 0.21 0.08 0.12 0.20 0.13 0.18 0.18 0.25 0.40 0.41 0.50 0.69 0.77 0.67 0.67 0.88 1.02 1.20 1.02 0.62 0.39 0.30 0.30 0.39 0.43 0.56 0.78 0.71 0.62 0.55 0.46 0.63 0.86 0.69 0.62 0.53 0.52 0.57 0.43 0.33
0.07 0.06 0.09 0.29 0.59 0.33 0.19 0.29 0.38 0.22 0.22 0.32 0.48 0.69 0.99 1.21 1.04 0.89 1.09 1.27 1.11 0.95 0.84 0.66 0.48 0.42 0.39 0.53 0.74 0.79 0.90 1.05 1.05 0.93 0.84 0.82 0.65 0.61 0.63 0.63 0.73 0.57 0.47
0.17 0.10 0.04 0.04 0.16 0.42 0.42 0.19 0.23 0.35 0.31 0.27 0.46 0.55 0.73 1.03 1.46 1.29 1.15 1.35 1.40 1.24 1.23 1.22 0.93 0.80 0.82 0.86 0.93 1.03 1.09 0.98 0.98 0.83 0.66 0.57 0.58 0.57 0.67 0.67 0.67 0.64 0.54
0.14 0.22 0.27 0.12 0.12 0.10 0.23 0.25 0.14 0.10 0.20 0.20 0.15 0.24 0.50 0.65 0.94 1.00 0.90 0.85 0.99 1.14 0.98 0.97 0.98 1.03 0.86 0.90 1.02 0.87 0.81 0.81 0.79 0.79 0.60 0.52 0.55 0.52 0.70 0.67 0.59 0.56 0.50